owner,sensor,date,latitude,longitude,vertical_datum,sea_water_practical_salinity,qcFlag 
SCCF RECON,ioos:station:SCCF:53:1,2009-11-01T00:00:00Z,26.6493,-81.8810,1.0,-9999.0,1111122 
SCCF RECON,ioos:station:SCCF:53:1,2009-11-01T01:00:00Z,26.6493,-81.8810,1.0,-9999.0,1111122 
SCCF RECON,ioos:station:SCCF:53:1,2009-11-01T02:00:00Z,26.6493,-81.8810,1.0,-9999.0,1111122 
SCCF RECON,ioos:station:SCCF:53:1,2009-11-01T03:00:00Z,26.6493,-81.8810,1.0,-9999.0,1111122 
SCCF RECON,ioos:station:SCCF:53:1,2009-11-01T04:00:00Z,26.6493,-81.8810,1.0,-9999.0,1111122 
SCCF RECON,ioos:station:SCCF:53:1,2009-11-01T05:00:00Z,26.6493,-81.8810,1.0,-9999.0,1111122 
SCCF RECON,ioos:station:SCCF:53:1,2009-11-01T06:00:00Z,26.6493,-81.8810,1.0,-9999.0,1111122 
SCCF RECON,ioos:station:SCCF:53:1,2009-11-01T07:00:00Z,26.6493,-81.8810,1.0,-9999.0,1111122 
SCCF RECON,ioos:station:SCCF:53:1,2009-11-01T08:00:00Z,26.6493,-81.8810,1.0,-9999.0,1111122 
SCCF RECON,ioos:station:SCCF:53:1,2009-11-01T09:00:00Z,26.6493,-81.8810,1.0,-9999.0,1111122 
SCCF RECON,ioos:station:SCCF:53:1,2009-11-01T10:00:00Z,26.6493,-81.8810,1.0,-9999.0,1111122 
SCCF RECON,ioos:station:SCCF:53:1,2009-11-01T11:00:00Z,26.6493,-81.8810,1.0,-9999.0,1111122 
SCCF RECON,ioos:station:SCCF:53:1,2009-11-01T12:00:00Z,26.6493,-81.8810,1.0,-9999.0,1111122 
SCCF RECON,ioos:station:SCCF:53:1,2009-11-01T13:00:00Z,26.6493,-81.8810,1.0,-9999.0,1111122 
SCCF RECON,ioos:station:SCCF:53:1,2009-11-01T14:00:00Z,26.6493,-81.8810,1.0,-9999.0,1111122 
SCCF RECON,ioos:station:SCCF:53:1,2009-11-01T15:00:00Z,26.6493,-81.8810,1.0,-9999.0,1111122 
SCCF RECON,ioos:station:SCCF:53:1,2009-11-01T16:00:00Z,26.6493,-81.8810,1.0,-9999.0,1111122 
SCCF RECON,ioos:station:SCCF:53:1,2009-11-01T17:00:00Z,26.6493,-81.8810,1.0,-9999.0,1111122 
SCCF RECON,ioos:station:SCCF:53:1,2009-11-01T18:00:00Z,26.6493,-81.8810,1.0,-9999.0,1111122 
SCCF RECON,ioos:station:SCCF:53:1,2009-11-01T19:00:00Z,26.6493,-81.8810,1.0,-9999.0,1111122 
SCCF RECON,ioos:station:SCCF:53:1,2009-11-01T20:00:00Z,26.6493,-81.8810,1.0,-9999.0,1111122 
SCCF RECON,ioos:station:SCCF:53:1,2009-11-01T21:00:00Z,26.6493,-81.8810,1.0,-9999.0,1111122 
SCCF RECON,ioos:station:SCCF:53:1,2009-11-01T22:00:00Z,26.6493,-81.8810,1.0,-9999.0,1111122 
SCCF RECON,ioos:station:SCCF:53:1,2009-11-01T23:00:00Z,26.6493,-81.8810,1.0,-9999.0,1111122 
SCCF RECON,ioos:station:SCCF:53:1,2009-11-02T00:00:00Z,26.6493,-81.8810,1.0,-9999.0,1111122 
SCCF RECON,ioos:station:SCCF:53:1,2009-11-02T01:00:00Z,26.6493,-81.8810,1.0,-9999.0,1111122 
SCCF RECON,ioos:station:SCCF:53:1,2009-11-02T02:00:00Z,26.6493,-81.8810,1.0,-9999.0,1111122 
SCCF RECON,ioos:station:SCCF:53:1,2009-11-02T03:00:00Z,26.6493,-81.8810,1.0,-9999.0,1111122 
SCCF RECON,ioos:station:SCCF:53:1,2009-11-02T04:00:00Z,26.6493,-81.8810,1.0,-9999.0,1111122 
SCCF RECON,ioos:station:SCCF:53:1,2009-11-02T05:00:00Z,26.6493,-81.8810,1.0,-9999.0,1111122 
SCCF RECON,ioos:station:SCCF:53:1,2009-11-02T06:00:00Z,26.6493,-81.8810,1.0,-9999.0,1111122 
SCCF RECON,ioos:station:SCCF:53:1,2009-11-02T07:00:00Z,26.6493,-81.8810,1.0,-9999.0,1111122 
SCCF RECON,ioos:station:SCCF:53:1,2009-11-02T08:00:00Z,26.6493,-81.8810,1.0,-9999.0,1111122 
SCCF RECON,ioos:station:SCCF:53:1,2009-11-02T09:00:00Z,26.6493,-81.8810,1.0,-9999.0,1111122 
SCCF RECON,ioos:station:SCCF:53:1,2009-11-02T10:00:00Z,26.6493,-81.8810,1.0,-9999.0,1111122 
SCCF RECON,ioos:station:SCCF:53:1,2009-11-02T11:00:00Z,26.6493,-81.8810,1.0,-9999.0,1111122 
SCCF RECON,ioos:station:SCCF:53:1,2009-11-02T12:00:00Z,26.6493,-81.8810,1.0,-9999.0,1111122 
SCCF RECON,ioos:station:SCCF:53:1,2009-11-02T13:00:00Z,26.6493,-81.8810,1.0,-9999.0,1111122 
SCCF RECON,ioos:station:SCCF:53:1,2009-11-02T14:00:00Z,26.6493,-81.8810,1.0,-9999.0,1111122 
SCCF RECON,ioos:station:SCCF:53:1,2009-11-02T15:00:00Z,26.6493,-81.8810,1.0,-9999.0,1111122 
SCCF RECON,ioos:station:SCCF:53:1,2009-11-02T16:00:00Z,26.6493,-81.8810,1.0,-9999.0,1111122 
SCCF RECON,ioos:station:SCCF:53:1,2009-11-02T18:00:00Z,26.6493,-81.8810,2.181,15.3,1111122 
SCCF RECON,ioos:station:SCCF:53:1,2009-11-02T19:00:00Z,26.6493,-81.8810,2.241,14.67,1111122 
SCCF RECON,ioos:station:SCCF:53:1,2009-11-02T20:00:00Z,26.6493,-81.8810,2.301,15.68,1111122 
SCCF RECON,ioos:station:SCCF:53:1,2009-11-02T21:00:00Z,26.6493,-81.8810,2.33,14.68,1111122 
SCCF RECON,ioos:station:SCCF:53:1,2009-11-02T22:00:00Z,26.6493,-81.8810,2.33,14.31,1111122 
SCCF RECON,ioos:station:SCCF:53:1,2009-11-02T23:00:00Z,26.6493,-81.8810,2.299,13.48,1111122 
SCCF RECON,ioos:station:SCCF:53:1,2009-11-03T00:00:00Z,26.6493,-81.8810,2.26,13.67,1111122 
SCCF RECON,ioos:station:SCCF:53:1,2009-11-03T01:00:00Z,26.6493,-81.8810,2.23,13.59,1111122 
SCCF RECON,ioos:station:SCCF:53:1,2009-11-03T02:00:00Z,26.6493,-81.8810,2.21,13.39,1111122 
SCCF RECON,ioos:station:SCCF:53:1,2009-11-03T03:00:00Z,26.6493,-81.8810,2.25,15.28,1111122 
SCCF RECON,ioos:station:SCCF:53:1,2009-11-03T04:00:00Z,26.6493,-81.8810,2.318,14.92,1111122 
SCCF RECON,ioos:station:SCCF:53:1,2009-11-03T05:00:00Z,26.6493,-81.8810,2.37,14.51,1111122 
SCCF RECON,ioos:station:SCCF:53:1,2009-11-03T06:00:00Z,26.6493,-81.8810,2.43,15.6,1111122 
SCCF RECON,ioos:station:SCCF:53:1,2009-11-03T07:00:00Z,26.6493,-81.8810,2.48,16.01,1111122 
SCCF RECON,ioos:station:SCCF:53:1,2009-11-03T08:00:00Z,26.6493,-81.8810,2.49,16.24,1111122 
SCCF RECON,ioos:station:SCCF:53:1,2009-11-03T09:00:00Z,26.6493,-81.8810,2.44,14.82,1111122 
SCCF RECON,ioos:station:SCCF:53:1,2009-11-03T10:00:00Z,26.6493,-81.8810,2.37,14.07,1111122 
SCCF RECON,ioos:station:SCCF:53:1,2009-11-03T11:00:00Z,26.6493,-81.8810,2.31,14.13,1111122 
SCCF RECON,ioos:station:SCCF:53:1,2009-11-03T12:00:00Z,26.6493,-81.8810,2.25,14.09,1111122 
SCCF RECON,ioos:station:SCCF:53:1,2009-11-03T13:00:00Z,26.6493,-81.8810,2.189,13.38,1111122 
SCCF RECON,ioos:station:SCCF:53:1,2009-11-03T15:00:00Z,26.6493,-81.8810,2.07,12.51,1111122 
SCCF RECON,ioos:station:SCCF:53:1,2009-11-03T16:00:00Z,26.6493,-81.8810,2.03,14.08,1111122 
SCCF RECON,ioos:station:SCCF:53:1,2009-11-03T17:00:00Z,26.6493,-81.8810,2.042,14.7,1111122 
SCCF RECON,ioos:station:SCCF:53:1,2009-11-03T18:00:00Z,26.6493,-81.8810,2.09,14.82,1111122 
SCCF RECON,ioos:station:SCCF:53:1,2009-11-03T19:00:00Z,26.6493,-81.8810,2.14,14.78,1111122 
SCCF RECON,ioos:station:SCCF:53:1,2009-11-03T20:00:00Z,26.6493,-81.8810,2.2,14.7,1111122 
SCCF RECON,ioos:station:SCCF:53:1,2009-11-03T21:00:00Z,26.6493,-81.8810,2.247,14.75,1111122 
SCCF RECON,ioos:station:SCCF:53:1,2009-11-03T22:00:00Z,26.6493,-81.8810,2.275,14.72,1111122 
SCCF RECON,ioos:station:SCCF:53:1,2009-11-03T23:00:00Z,26.6493,-81.8810,2.27,14.73,1111122 
SCCF RECON,ioos:station:SCCF:53:1,2009-11-04T00:00:00Z,26.6493,-81.8810,2.238,13.82,1111122 
SCCF RECON,ioos:station:SCCF:53:1,2009-11-04T01:00:00Z,26.6493,-81.8810,2.193,13.43,1111122 
SCCF RECON,ioos:station:SCCF:53:1,2009-11-04T02:00:00Z,26.6493,-81.8810,2.16,13.34,1111122 
SCCF RECON,ioos:station:SCCF:53:1,2009-11-04T03:00:00Z,26.6493,-81.8810,2.147,13.36,1111122 
SCCF RECON,ioos:station:SCCF:53:1,2009-11-04T04:00:00Z,26.6493,-81.8810,2.2,13.75,1111122 
SCCF RECON,ioos:station:SCCF:53:1,2009-11-04T05:00:00Z,26.6493,-81.8810,2.26,14.44,1111122 
SCCF RECON,ioos:station:SCCF:53:1,2009-11-04T06:00:00Z,26.6493,-81.8810,2.308,15.22,1111122 
SCCF RECON,ioos:station:SCCF:53:1,2009-11-04T07:00:00Z,26.6493,-81.8810,2.359,15.6,1111122 
SCCF RECON,ioos:station:SCCF:53:1,2009-11-04T08:00:00Z,26.6493,-81.8810,2.381,15.57,1111122 
SCCF RECON,ioos:station:SCCF:53:1,2009-11-04T09:00:00Z,26.6493,-81.8810,2.36,15.06,1111122 
SCCF RECON,ioos:station:SCCF:53:1,2009-11-04T10:00:00Z,26.6493,-81.8810,2.301,14.36,1111122 
SCCF RECON,ioos:station:SCCF:53:1,2009-11-04T11:00:00Z,26.6493,-81.8810,2.25,13.96,1111122 
SCCF RECON,ioos:station:SCCF:53:1,2009-11-04T12:00:00Z,26.6493,-81.8810,2.19,13.55,1111122 
SCCF RECON,ioos:station:SCCF:53:1,2009-11-04T13:00:00Z,26.6493,-81.8810,2.132,12.96,1111122 
SCCF RECON,ioos:station:SCCF:53:1,2009-11-04T14:00:00Z,26.6493,-81.8810,2.08,12.58,1111122 
SCCF RECON,ioos:station:SCCF:53:1,2009-11-04T15:00:00Z,26.6493,-81.8810,2.02,12.33,1111122 
SCCF RECON,ioos:station:SCCF:53:1,2009-11-04T16:00:00Z,26.6493,-81.8810,1.966,12.04,1111122 
SCCF RECON,ioos:station:SCCF:53:1,2009-11-04T17:00:00Z,26.6493,-81.8810,1.929,12.27,1111122 
SCCF RECON,ioos:station:SCCF:53:1,2009-11-04T18:00:00Z,26.6493,-81.8810,1.944,12.34,1111122 
SCCF RECON,ioos:station:SCCF:53:1,2009-11-04T19:00:00Z,26.6493,-81.8810,1.995,12.27,1111122 
SCCF RECON,ioos:station:SCCF:53:1,2009-11-04T20:00:00Z,26.6493,-81.8810,2.039,12.95,1111122 
SCCF RECON,ioos:station:SCCF:53:1,2009-11-04T21:00:00Z,26.6493,-81.8810,2.09,13.53,1111122 
SCCF RECON,ioos:station:SCCF:53:1,2009-11-04T22:00:00Z,26.6493,-81.8810,2.142,13.92,1111122 
SCCF RECON,ioos:station:SCCF:53:1,2009-11-04T23:00:00Z,26.6493,-81.8810,2.177,14.24,1111122 
SCCF RECON,ioos:station:SCCF:53:1,2009-11-05T00:00:00Z,26.6493,-81.8810,2.21,14.8,1111122 
SCCF RECON,ioos:station:SCCF:53:1,2009-11-05T01:00:00Z,26.6493,-81.8810,2.219,14.71,1111122 
SCCF RECON,ioos:station:SCCF:53:1,2009-11-05T02:00:00Z,26.6493,-81.8810,2.2,14.64,1111122 
SCCF RECON,ioos:station:SCCF:53:1,2009-11-05T03:00:00Z,26.6493,-81.8810,2.19,14.72,1111122 
SCCF RECON,ioos:station:SCCF:53:1,2009-11-05T04:00:00Z,26.6493,-81.8810,2.21,15.2,1111122 
SCCF RECON,ioos:station:SCCF:53:1,2009-11-05T05:00:00Z,26.6493,-81.8810,2.27,15.15,1111122 
SCCF RECON,ioos:station:SCCF:53:1,2009-11-05T06:00:00Z,26.6493,-81.8810,2.33,15.34,1111122 
SCCF RECON,ioos:station:SCCF:53:1,2009-11-05T07:00:00Z,26.6493,-81.8810,2.378,15.55,1111122 
SCCF RECON,ioos:station:SCCF:53:1,2009-11-05T08:00:00Z,26.6493,-81.8810,2.411,15.77,1111122 
SCCF RECON,ioos:station:SCCF:53:1,2009-11-05T09:00:00Z,26.6493,-81.8810,2.42,15.68,1111122 
SCCF RECON,ioos:station:SCCF:53:1,2009-11-05T10:00:00Z,26.6493,-81.8810,2.37,15.01,1111122 
SCCF RECON,ioos:station:SCCF:53:1,2009-11-05T11:00:00Z,26.6493,-81.8810,2.31,14.47,1111122 
SCCF RECON,ioos:station:SCCF:53:1,2009-11-05T12:00:00Z,26.6493,-81.8810,2.26,13.99,1111122 
SCCF RECON,ioos:station:SCCF:53:1,2009-11-05T13:00:00Z,26.6493,-81.8810,2.194,13.69,1111122 
SCCF RECON,ioos:station:SCCF:53:1,2009-11-05T14:00:00Z,26.6493,-81.8810,2.14,13.11,1111122 
SCCF RECON,ioos:station:SCCF:53:1,2009-11-05T15:00:00Z,26.6493,-81.8810,2.073,12.81,1111122 
SCCF RECON,ioos:station:SCCF:53:1,2009-11-05T16:00:00Z,26.6493,-81.8810,2.016,12.65,1111122 
SCCF RECON,ioos:station:SCCF:53:1,2009-11-05T17:00:00Z,26.6493,-81.8810,1.96,12.53,1111122 
SCCF RECON,ioos:station:SCCF:53:1,2009-11-05T18:00:00Z,26.6493,-81.8810,1.906,12.15,1111122 
SCCF RECON,ioos:station:SCCF:53:1,2009-11-05T19:00:00Z,26.6493,-81.8810,1.897,12.13,1111122 
SCCF RECON,ioos:station:SCCF:53:1,2009-11-05T20:00:00Z,26.6493,-81.8810,1.934,12.34,1111122 
SCCF RECON,ioos:station:SCCF:53:1,2009-11-05T21:00:00Z,26.6493,-81.8810,1.977,12.78,1111122 
SCCF RECON,ioos:station:SCCF:53:1,2009-11-05T22:00:00Z,26.6493,-81.8810,2.021,13.05,1111122 
SCCF RECON,ioos:station:SCCF:53:1,2009-11-05T23:00:00Z,26.6493,-81.8810,2.067,13.55,1111122 
SCCF RECON,ioos:station:SCCF:53:1,2009-11-06T00:00:00Z,26.6493,-81.8810,2.09,13.84,1111122 
SCCF RECON,ioos:station:SCCF:53:1,2009-11-06T01:00:00Z,26.6493,-81.8810,2.103,13.86,1111122 
SCCF RECON,ioos:station:SCCF:53:1,2009-11-06T02:00:00Z,26.6493,-81.8810,2.092,13.53,1111122 
SCCF RECON,ioos:station:SCCF:53:1,2009-11-06T03:00:00Z,26.6493,-81.8810,2.079,13.58,1111122 
SCCF RECON,ioos:station:SCCF:53:1,2009-11-06T04:00:00Z,26.6493,-81.8810,2.061,13.59,1111122 
SCCF RECON,ioos:station:SCCF:53:1,2009-11-06T05:00:00Z,26.6493,-81.8810,2.058,13.54,1111122 
SCCF RECON,ioos:station:SCCF:53:1,2009-11-06T06:00:00Z,26.6493,-81.8810,2.1,13.69,1111122 
SCCF RECON,ioos:station:SCCF:53:1,2009-11-06T07:00:00Z,26.6493,-81.8810,2.139,14.46,1111122 
SCCF RECON,ioos:station:SCCF:53:1,2009-11-06T08:00:00Z,26.6493,-81.8810,2.176,14.59,1111122 
SCCF RECON,ioos:station:SCCF:53:1,2009-11-06T09:00:00Z,26.6493,-81.8810,2.21,15.16,1111122 
SCCF RECON,ioos:station:SCCF:53:1,2009-11-06T10:00:00Z,26.6493,-81.8810,2.22,15.11,1111122 
SCCF RECON,ioos:station:SCCF:53:1,2009-11-06T11:00:00Z,26.6493,-81.8810,2.19,14.41,1111122 
SCCF RECON,ioos:station:SCCF:53:1,2009-11-06T12:00:00Z,26.6493,-81.8810,2.139,13.99,1111122 
SCCF RECON,ioos:station:SCCF:53:1,2009-11-06T13:00:00Z,26.6493,-81.8810,2.1,13.84,1111122 
SCCF RECON,ioos:station:SCCF:53:1,2009-11-06T14:00:00Z,26.6493,-81.8810,2.04,12.71,1111122 
SCCF RECON,ioos:station:SCCF:53:1,2009-11-06T15:00:00Z,26.6493,-81.8810,1.99,12.78,1111122 
SCCF RECON,ioos:station:SCCF:53:1,2009-11-06T16:00:00Z,26.6493,-81.8810,1.935,12.17,1111122 
SCCF RECON,ioos:station:SCCF:53:1,2009-11-06T17:00:00Z,26.6493,-81.8810,1.877,11.88,1111122 
SCCF RECON,ioos:station:SCCF:53:1,2009-11-06T18:00:00Z,26.6493,-81.8810,1.823,11.66,1111122 
SCCF RECON,ioos:station:SCCF:53:1,2009-11-06T19:00:00Z,26.6493,-81.8810,1.78,11.47,1111122 
SCCF RECON,ioos:station:SCCF:53:1,2009-11-06T20:00:00Z,26.6493,-81.8810,1.807,11.73,1111122 
SCCF RECON,ioos:station:SCCF:53:1,2009-11-06T21:00:00Z,26.6493,-81.8810,1.835,12.09,1111122 
SCCF RECON,ioos:station:SCCF:53:1,2009-11-06T22:00:00Z,26.6493,-81.8810,1.87,12.76,1111122 
SCCF RECON,ioos:station:SCCF:53:1,2009-11-06T23:00:00Z,26.6493,-81.8810,1.911,13.49,1111122 
SCCF RECON,ioos:station:SCCF:53:1,2009-11-07T00:00:00Z,26.6493,-81.8810,1.96,13.95,1111122 
SCCF RECON,ioos:station:SCCF:53:1,2009-11-07T01:00:00Z,26.6493,-81.8810,2.0,14.64,1111122 
SCCF RECON,ioos:station:SCCF:53:1,2009-11-07T02:00:00Z,26.6493,-81.8810,2.02,14.79,1111122 
SCCF RECON,ioos:station:SCCF:53:1,2009-11-07T03:00:00Z,26.6493,-81.8810,2.03,14.75,1111122 
SCCF RECON,ioos:station:SCCF:53:1,2009-11-07T04:00:00Z,26.6493,-81.8810,2.03,14.64,1111122 
SCCF RECON,ioos:station:SCCF:53:1,2009-11-07T05:00:00Z,26.6493,-81.8810,2.053,15.01,1111122 
SCCF RECON,ioos:station:SCCF:53:1,2009-11-07T06:00:00Z,26.6493,-81.8810,2.091,14.94,1111122 
SCCF RECON,ioos:station:SCCF:53:1,2009-11-07T07:00:00Z,26.6493,-81.8810,2.13,14.98,1111122 
SCCF RECON,ioos:station:SCCF:53:1,2009-11-07T08:00:00Z,26.6493,-81.8810,2.18,15.49,1111122 
SCCF RECON,ioos:station:SCCF:53:1,2009-11-07T09:00:00Z,26.6493,-81.8810,2.23,15.96,1111122 
SCCF RECON,ioos:station:SCCF:53:1,2009-11-07T10:00:00Z,26.6493,-81.8810,2.283,16.5,1111122 
SCCF RECON,ioos:station:SCCF:53:1,2009-11-07T11:00:00Z,26.6493,-81.8810,2.321,16.63,1111122 
SCCF RECON,ioos:station:SCCF:53:1,2009-11-07T12:00:00Z,26.6493,-81.8810,2.31,16.24,1111122 
SCCF RECON,ioos:station:SCCF:53:1,2009-11-07T13:00:00Z,26.6493,-81.8810,2.255,15.66,1111122 
SCCF RECON,ioos:station:SCCF:53:1,2009-11-07T14:00:00Z,26.6493,-81.8810,2.2,15.9,1111122 
SCCF RECON,ioos:station:SCCF:53:1,2009-11-07T15:00:00Z,26.6493,-81.8810,2.139,14.62,1111122 
SCCF RECON,ioos:station:SCCF:53:1,2009-11-07T16:00:00Z,26.6493,-81.8810,2.079,13.75,1111122 
SCCF RECON,ioos:station:SCCF:53:1,2009-11-07T17:00:00Z,26.6493,-81.8810,2.007,13.29,1111122 
SCCF RECON,ioos:station:SCCF:53:1,2009-11-07T18:00:00Z,26.6493,-81.8810,1.943,13.15,1111122 
SCCF RECON,ioos:station:SCCF:53:1,2009-11-07T19:00:00Z,26.6493,-81.8810,1.889,12.99,1111122 
SCCF RECON,ioos:station:SCCF:53:1,2009-11-07T20:00:00Z,26.6493,-81.8810,1.872,13.02,1111122 
SCCF RECON,ioos:station:SCCF:53:1,2009-11-07T21:00:00Z,26.6493,-81.8810,1.897,13.42,1111122 
SCCF RECON,ioos:station:SCCF:53:1,2009-11-07T22:00:00Z,26.6493,-81.8810,1.93,13.75,1111122 
SCCF RECON,ioos:station:SCCF:53:1,2009-11-07T23:00:00Z,26.6493,-81.8810,1.974,14.64,1111122 
SCCF RECON,ioos:station:SCCF:53:1,2009-11-08T00:00:00Z,26.6493,-81.8810,2.024,15.34,1111122 
SCCF RECON,ioos:station:SCCF:53:1,2009-11-08T01:00:00Z,26.6493,-81.8810,2.06,15.75,1111122 
SCCF RECON,ioos:station:SCCF:53:1,2009-11-08T02:00:00Z,26.6493,-81.8810,2.081,15.98,1111122 
SCCF RECON,ioos:station:SCCF:53:1,2009-11-08T03:00:00Z,26.6493,-81.8810,2.08,15.99,1111122 
SCCF RECON,ioos:station:SCCF:53:1,2009-11-08T04:00:00Z,26.6493,-81.8810,2.06,15.44,1111122 
SCCF RECON,ioos:station:SCCF:53:1,2009-11-08T05:00:00Z,26.6493,-81.8810,2.04,15.64,1111122 
SCCF RECON,ioos:station:SCCF:53:1,2009-11-08T06:00:00Z,26.6493,-81.8810,2.04,15.62,1111122 
SCCF RECON,ioos:station:SCCF:53:1,2009-11-08T07:00:00Z,26.6493,-81.8810,2.08,16.22,1111122 
SCCF RECON,ioos:station:SCCF:53:1,2009-11-08T08:00:00Z,26.6493,-81.8810,2.133,16.68,1111122 
SCCF RECON,ioos:station:SCCF:53:1,2009-11-08T09:00:00Z,26.6493,-81.8810,2.19,17.08,1111122 
SCCF RECON,ioos:station:SCCF:53:1,2009-11-08T10:00:00Z,26.6493,-81.8810,2.26,17.18,1111122 
SCCF RECON,ioos:station:SCCF:53:1,2009-11-08T11:00:00Z,26.6493,-81.8810,2.31,17.11,1111122 
SCCF RECON,ioos:station:SCCF:53:1,2009-11-08T12:00:00Z,26.6493,-81.8810,2.33,17.09,1111122 
SCCF RECON,ioos:station:SCCF:53:1,2009-11-08T13:00:00Z,26.6493,-81.8810,2.317,17.02,1111122 
SCCF RECON,ioos:station:SCCF:53:1,2009-11-08T14:00:00Z,26.6493,-81.8810,2.251,16.64,1111122 
SCCF RECON,ioos:station:SCCF:53:1,2009-11-08T15:00:00Z,26.6493,-81.8810,2.198,16.23,1111122 
SCCF RECON,ioos:station:SCCF:53:1,2009-11-08T16:00:00Z,26.6493,-81.8810,2.138,15.48,1111122 
SCCF RECON,ioos:station:SCCF:53:1,2009-11-08T17:00:00Z,26.6493,-81.8810,2.069,15.1,1111122 
SCCF RECON,ioos:station:SCCF:53:1,2009-11-08T18:00:00Z,26.6493,-81.8810,2.007,14.63,1111122 
SCCF RECON,ioos:station:SCCF:53:1,2009-11-08T19:00:00Z,26.6493,-81.8810,1.942,14.48,1111122 
SCCF RECON,ioos:station:SCCF:53:1,2009-11-08T20:00:00Z,26.6493,-81.8810,1.904,14.46,1111122 
SCCF RECON,ioos:station:SCCF:53:1,2009-11-08T21:00:00Z,26.6493,-81.8810,1.898,14.42,1111122 
SCCF RECON,ioos:station:SCCF:53:1,2009-11-08T22:00:00Z,26.6493,-81.8810,1.922,14.66,1111122 
SCCF RECON,ioos:station:SCCF:53:1,2009-11-08T23:00:00Z,26.6493,-81.8810,1.96,15.38,1111122 
SCCF RECON,ioos:station:SCCF:53:1,2009-11-09T00:00:00Z,26.6493,-81.8810,2.014,16.06,1111122 
SCCF RECON,ioos:station:SCCF:53:1,2009-11-09T01:00:00Z,26.6493,-81.8810,2.068,16.62,1111122 
SCCF RECON,ioos:station:SCCF:53:1,2009-11-09T02:00:00Z,26.6493,-81.8810,2.109,16.67,1111122 
SCCF RECON,ioos:station:SCCF:53:1,2009-11-09T03:00:00Z,26.6493,-81.8810,2.137,16.82,1111122 
SCCF RECON,ioos:station:SCCF:53:1,2009-11-09T04:00:00Z,26.6493,-81.8810,2.136,16.87,1111122 
SCCF RECON,ioos:station:SCCF:53:1,2009-11-09T05:00:00Z,26.6493,-81.8810,2.111,17.0,1111122 
SCCF RECON,ioos:station:SCCF:53:1,2009-11-09T06:00:00Z,26.6493,-81.8810,2.115,16.93,1111122 
SCCF RECON,ioos:station:SCCF:53:1,2009-11-09T07:00:00Z,26.6493,-81.8810,2.131,17.06,1111122 
SCCF RECON,ioos:station:SCCF:53:1,2009-11-09T08:00:00Z,26.6493,-81.8810,2.17,17.11,1111122 
SCCF RECON,ioos:station:SCCF:53:1,2009-11-09T09:00:00Z,26.6493,-81.8810,2.22,17.31,1111122 
SCCF RECON,ioos:station:SCCF:53:1,2009-11-09T10:00:00Z,26.6493,-81.8810,2.28,17.48,1111122 
SCCF RECON,ioos:station:SCCF:53:1,2009-11-09T11:00:00Z,26.6493,-81.8810,2.35,17.84,1111122 
SCCF RECON,ioos:station:SCCF:53:1,2009-11-09T12:00:00Z,26.6493,-81.8810,2.411,17.91,1111122 
SCCF RECON,ioos:station:SCCF:53:1,2009-11-09T13:00:00Z,26.6493,-81.8810,2.46,18.04,1111122 
SCCF RECON,ioos:station:SCCF:53:1,2009-11-09T14:00:00Z,26.6493,-81.8810,2.47,18.1,1111122 
SCCF RECON,ioos:station:SCCF:53:1,2009-11-09T15:00:00Z,26.6493,-81.8810,2.436,18.03,1111122 
SCCF RECON,ioos:station:SCCF:53:1,2009-11-09T16:00:00Z,26.6493,-81.8810,2.366,17.62,1111122 
SCCF RECON,ioos:station:SCCF:53:1,2009-11-09T17:00:00Z,26.6493,-81.8810,2.305,17.22,1111122 
SCCF RECON,ioos:station:SCCF:53:1,2009-11-09T18:00:00Z,26.6493,-81.8810,2.24,16.98,1111122 
SCCF RECON,ioos:station:SCCF:53:1,2009-11-09T19:00:00Z,26.6493,-81.8810,2.178,16.53,1111122 
SCCF RECON,ioos:station:SCCF:53:1,2009-11-09T20:00:00Z,26.6493,-81.8810,2.14,16.5,1111122 
SCCF RECON,ioos:station:SCCF:53:1,2009-11-09T21:00:00Z,26.6493,-81.8810,2.132,16.82,1111122 
SCCF RECON,ioos:station:SCCF:53:1,2009-11-09T22:00:00Z,26.6493,-81.8810,2.18,16.87,1111122 
SCCF RECON,ioos:station:SCCF:53:1,2009-11-09T23:00:00Z,26.6493,-81.8810,2.24,17.5,1111122 
SCCF RECON,ioos:station:SCCF:53:1,2009-11-10T00:00:00Z,26.6493,-81.8810,2.308,17.61,1111122 
SCCF RECON,ioos:station:SCCF:53:1,2009-11-10T01:00:00Z,26.6493,-81.8810,2.37,17.51,1111122 
SCCF RECON,ioos:station:SCCF:53:1,2009-11-10T02:00:00Z,26.6493,-81.8810,2.429,16.9,1111122 
SCCF RECON,ioos:station:SCCF:53:1,2009-11-10T03:00:00Z,26.6493,-81.8810,2.47,17.1,1111122 
SCCF RECON,ioos:station:SCCF:53:1,2009-11-10T04:00:00Z,26.6493,-81.8810,2.48,17.4,1111122 
SCCF RECON,ioos:station:SCCF:53:1,2009-11-10T05:00:00Z,26.6493,-81.8810,2.45,17.52,1111122 
SCCF RECON,ioos:station:SCCF:53:1,2009-11-10T06:00:00Z,26.6493,-81.8810,2.4,17.4,1111122 
SCCF RECON,ioos:station:SCCF:53:1,2009-11-10T07:00:00Z,26.6493,-81.8810,2.35,17.39,1111122 
SCCF RECON,ioos:station:SCCF:53:1,2009-11-10T08:00:00Z,26.6493,-81.8810,2.31,17.5,1111122 
SCCF RECON,ioos:station:SCCF:53:1,2009-11-10T09:00:00Z,26.6493,-81.8810,2.28,17.71,1111122 
SCCF RECON,ioos:station:SCCF:53:1,2009-11-10T10:00:00Z,26.6493,-81.8810,2.31,17.69,1111122 
SCCF RECON,ioos:station:SCCF:53:1,2009-11-10T11:00:00Z,26.6493,-81.8810,2.358,17.9,1111122 
SCCF RECON,ioos:station:SCCF:53:1,2009-11-10T12:00:00Z,26.6493,-81.8810,2.403,17.77,1111122 
SCCF RECON,ioos:station:SCCF:53:1,2009-11-10T13:00:00Z,26.6493,-81.8810,2.453,18.02,1111122 
SCCF RECON,ioos:station:SCCF:53:1,2009-11-10T14:00:00Z,26.6493,-81.8810,2.504,18.31,1111122 
SCCF RECON,ioos:station:SCCF:53:1,2009-11-10T15:00:00Z,26.6493,-81.8810,2.538,17.99,1111122 
SCCF RECON,ioos:station:SCCF:53:1,2009-11-10T16:00:00Z,26.6493,-81.8810,2.52,17.92,1111122 
SCCF RECON,ioos:station:SCCF:53:1,2009-11-10T17:00:00Z,26.6493,-81.8810,2.469,17.7,1111122 
SCCF RECON,ioos:station:SCCF:53:1,2009-11-10T18:00:00Z,26.6493,-81.8810,2.404,17.5,1111122 
SCCF RECON,ioos:station:SCCF:53:1,2009-11-10T19:00:00Z,26.6493,-81.8810,2.346,17.5,1111122 
SCCF RECON,ioos:station:SCCF:53:1,2009-11-10T20:00:00Z,26.6493,-81.8810,2.291,17.29,1111122 
SCCF RECON,ioos:station:SCCF:53:1,2009-11-10T21:00:00Z,26.6493,-81.8810,2.244,16.66,1111122 
SCCF RECON,ioos:station:SCCF:53:1,2009-11-10T22:00:00Z,26.6493,-81.8810,2.24,17.07,1111122 
SCCF RECON,ioos:station:SCCF:53:1,2009-11-10T23:00:00Z,26.6493,-81.8810,2.292,17.22,1111122 
SCCF RECON,ioos:station:SCCF:53:1,2009-11-11T00:00:00Z,26.6493,-81.8810,2.35,17.93,1111122 
SCCF RECON,ioos:station:SCCF:53:1,2009-11-11T01:00:00Z,26.6493,-81.8810,2.4,18.03,1111122 
SCCF RECON,ioos:station:SCCF:53:1,2009-11-11T02:00:00Z,26.6493,-81.8810,2.47,18.25,1111122 
SCCF RECON,ioos:station:SCCF:53:1,2009-11-11T03:00:00Z,26.6493,-81.8810,2.51,19.14,1111122 
SCCF RECON,ioos:station:SCCF:53:1,2009-11-11T04:00:00Z,26.6493,-81.8810,2.52,18.31,1111122 
SCCF RECON,ioos:station:SCCF:53:1,2009-11-11T05:00:00Z,26.6493,-81.8810,2.488,18.1,1111122 
SCCF RECON,ioos:station:SCCF:53:1,2009-11-11T06:00:00Z,26.6493,-81.8810,2.43,17.54,1111122 
SCCF RECON,ioos:station:SCCF:53:1,2009-11-11T07:00:00Z,26.6493,-81.8810,2.374,17.22,1111122 
SCCF RECON,ioos:station:SCCF:53:1,2009-11-11T08:00:00Z,26.6493,-81.8810,2.329,16.87,1111122 
SCCF RECON,ioos:station:SCCF:53:1,2009-11-11T09:00:00Z,26.6493,-81.8810,2.272,16.81,1111122 
SCCF RECON,ioos:station:SCCF:53:1,2009-11-11T10:00:00Z,26.6493,-81.8810,2.24,16.45,1111122 
SCCF RECON,ioos:station:SCCF:53:1,2009-11-11T11:00:00Z,26.6493,-81.8810,2.282,16.84,1111122 
SCCF RECON,ioos:station:SCCF:53:1,2009-11-11T12:00:00Z,26.6493,-81.8810,2.33,17.62,1111122 
SCCF RECON,ioos:station:SCCF:53:1,2009-11-11T13:00:00Z,26.6493,-81.8810,2.37,17.39,1111122 
SCCF RECON,ioos:station:SCCF:53:1,2009-11-11T14:00:00Z,26.6493,-81.8810,2.41,16.98,1111122 
SCCF RECON,ioos:station:SCCF:53:1,2009-11-11T15:00:00Z,26.6493,-81.8810,2.438,18.05,1111122 
SCCF RECON,ioos:station:SCCF:53:1,2009-11-11T16:00:00Z,26.6493,-81.8810,2.448,18.81,1111122 
SCCF RECON,ioos:station:SCCF:53:1,2009-11-11T17:00:00Z,26.6493,-81.8810,2.439,17.6,1111122 
SCCF RECON,ioos:station:SCCF:53:1,2009-11-11T18:00:00Z,26.6493,-81.8810,2.382,16.0,1111122 
SCCF RECON,ioos:station:SCCF:53:1,2009-11-11T19:00:00Z,26.6493,-81.8810,2.329,14.76,1111122 